Overview Statistics Trail Chart Weather Telemetry Raw packets
 

This is the latest recevied weather packets stored in our database for station/object SV9TNF-57. If no packets are shown the sender has not sent any weather packets the latest 10 day(s).

<< 53 54 55 56 57 58 59 >>
Time Temp. Humidity Pressure Rain* Wind** Luminosity Snow
1788303209 25.56° C 50% 995.1 hPa 0 mm 0 m/s - -
1788302908 26.11° C 50% 995.1 hPa 0 mm 0 m/s - -
1788302608 26.11° C 49% 995.1 hPa 0 mm 1.79 m/s, 263° - -
1788302308 26.11° C 49% 995.1 hPa 0 mm 0 m/s - -
1788302008 26.11° C 49% 995.1 hPa 0 mm 0.89 m/s, 273° - -
1788301708 26.11° C 49% 995.2 hPa 0 mm 0 m/s - -
1788301407 26.11° C 48% 995.3 hPa 0 mm 0 m/s - -
1788301108 26.11° C 49% 995.1 hPa 0 mm 0 m/s - -
1788300807 26.67° C 49% 995 hPa 0 mm 0 m/s - -
1788300507 26.67° C 49% 995.3 hPa 0 mm 0 m/s - -
1788300207 26.11° C 49% 995.2 hPa 0 mm 0.89 m/s, 347° - -
1788299907 26.11° C 49% 995.1 hPa 0 mm 0 m/s - -
1788299607 26.67° C 48% 995.2 hPa 0 mm 0 m/s - -
1788299307 26.67° C 48% 995.2 hPa 0 mm 0 m/s - -
1788299007 26.67° C 47% 995.1 hPa 0 mm 0 m/s - -
1788298707 26.67° C 46% 995.3 hPa 0 mm 2.68 m/s, 294° - -
1788298407 27.22° C 46% 995.2 hPa 0 mm 0.45 m/s, 274° - -
1788298107 27.22° C 46% 995.3 hPa 0 mm 0 m/s - -
1788297807 27.22° C 46% 995.2 hPa 0 mm 0 m/s - -
1788297507 26.67° C 47% 995.3 hPa 0 mm 0 m/s - -
1788297206 26.67° C 47% 995.4 hPa 0 mm 0 m/s - -
1788296906 26.67° C 48% 995.3 hPa 0 mm 0 m/s - -
1788296606 26.67° C 48% 995.4 hPa 0 mm 0 m/s - -
1788296306 27.22° C 48% 995.4 hPa 0 mm 0 m/s - -
1788296006 27.22° C 48% 995.5 hPa 0 mm 0 m/s - -

* Rain latest hour (hover to see other rain measurements)
** Current wind speed in m/s (hover to see current wind gust speed)